Location: Chmeln�
(49.6483°N, 14.9871°E)
Time: 08:46:54
(UTC+00:00)

Resurs 01 Rocket - Pass Details

Date: 18 September 2020
Orbit: 633 x 645 km, 98.0° (Epoch: 27 October)

Event Time Altitude Azimuth Distance (km) Brightness Sun altitude
Exits shadow 17:41:39 - 87° (E) 2,255 3.8 -6.5°
Reaches altitude 10° 17:42:47 10° 75° (ENE) 2,050 3.7 -6.7°
Maximum altitude 17:44:20 12° 54° (NE) 1,937 3.7 -7.0°
Drops below altitude 10° 17:45:54 10° 34° (NNE) 2,053 4.0 -7.2°
Sets 17:49:32 0° 3° (N) 2,967 5.2 -7.8°
